TimeCET,TemperatureF,Dew PointF,Humidity,Sea Level PressureIn,VisibilityMPH,Wind Direction,Wind SpeedMPH,Gust SpeedMPH,PrecipitationIn,Events,Conditions,WindDirDegrees,DateUTC
12:00 AM,37.4,35.6,93,30.01,5.6,Variable,2.3,-,N/A,,Unknown,0,2012-12-03 23:00:00
12:30 AM,37.4,33.8,87,30.01,5.6,Variable,2.3,-,N/A,,Unknown,0,2012-12-03 23:30:00
1:00 AM,39.2,35.6,87,29.98,6.2,Variable,3.5,-,N/A,,Unknown,0,2012-12-04 00:00:00
1:30 AM,39.2,35.6,87,29.98,5.0,East,2.3,-,N/A,,Unknown,80,2012-12-04 00:30:00
2:00 AM,39.2,35.6,87,29.95,5.6,Calm,Calm,-,N/A,,Unknown,0,2012-12-04 01:00:00
2:30 AM,37.4,35.6,93,29.95,5.6,Calm,Calm,-,N/A,,Overcast,0,2012-12-04 01:30:00
3:00 AM,39.2,35.6,87,29.95,6.2,SE,1.2,-,N/A,,Overcast,130,2012-12-04 02:00:00
3:30 AM,41.0,39.2,93,29.92,6.2,SE,4.6,-,N/A,,Mostly Cloudy,140,2012-12-04 02:30:00
4:00 AM,41.0,39.2,93,29.89,6.2,Variable,2.3,-,N/A,,Unknown,0,2012-12-04 03:00:00
4:30 AM,41.0,37.4,87,29.89,6.2,South,4.6,-,N/A,,Unknown,170,2012-12-04 03:30:00
5:00 AM,42.8,41.0,93,29.86,6.2,South,5.8,-,N/A,,Overcast,170,2012-12-04 04:00:00
5:30 AM,46.4,41.0,81,29.86,6.2,SSE,6.9,-,N/A,,Unknown,160,2012-12-04 04:30:00
6:00 AM,46.4,42.8,87,29.83,6.2,South,4.6,-,N/A,,Overcast,170,2012-12-04 05:00:00
6:30 AM,48.2,42.8,82,29.83,6.2,East,5.8,-,N/A,,Overcast,80,2012-12-04 05:30:00
7:00 AM,46.4,41.0,81,29.83,6.2,Calm,Calm,-,N/A,,Mostly Cloudy,0,2012-12-04 06:00:00
7:30 AM,46.4,42.8,87,29.83,6.2,Variable,2.3,-,N/A,,Overcast,0,2012-12-04 06:30:00
8:00 AM,46.4,44.6,93,29.83,6.2,Variable,3.5,-,N/A,,Mostly Cloudy,0,2012-12-04 07:00:00
8:30 AM,46.4,42.8,87,29.83,6.2,Variable,2.3,-,N/A,,Mostly Cloudy,0,2012-12-04 07:30:00
9:00 AM,44.6,42.8,93,29.83,6.2,Variable,1.2,-,N/A,,Mostly Cloudy,0,2012-12-04 08:00:00
9:30 AM,42.8,41.0,93,29.83,6.2,Calm,Calm,-,N/A,,Partly Cloudy,0,2012-12-04 08:30:00
10:00 AM,50.0,44.6,82,29.83,-9999.0,NNW,4.6,-,N/A,,Mist,330,2012-12-04 09:00:00
10:30 AM,51.8,42.8,71,29.83,5.0,NNW,4.6,-,N/A,,Unknown,340,2012-12-04 09:30:00
11:00 AM,50.0,41.0,71,29.86,6.2,North,6.9,-,N/A,,Unknown,350,2012-12-04 10:00:00
11:30 AM,50.0,41.0,71,29.86,6.2,Variable,3.5,-,N/A,,Unknown,0,2012-12-04 10:30:00
12:00 PM,50.0,41.0,71,29.83,6.2,Variable,2.3,-,N/A,,Unknown,0,2012-12-04 11:00:00
12:30 PM,55.4,39.2,54,29.80,6.2,Variable,3.5,-,N/A,,Mostly Cloudy,0,2012-12-04 11:30:00
1:00 PM,53.6,35.6,51,29.80,6.2,West,15.0,-,N/A,,Mostly Cloudy,270,2012-12-04 12:00:00
1:30 PM,48.2,39.2,71,29.83,6.2,NNW,20.7,33.4,N/A,Rain,Light Rain,330,2012-12-04 12:30:00
2:00 PM,46.4,39.2,76,29.83,6.2,North,12.7,-,N/A,,Unknown,360,2012-12-04 13:00:00
2:30 PM,48.2,37.4,66,29.83,6.2,North,13.8,-,N/A,,Unknown,360,2012-12-04 13:30:00
3:00 PM,50.0,39.2,66,29.83,6.2,North,11.5,-,N/A,,Scattered Clouds,360,2012-12-04 14:00:00
3:30 PM,50.0,37.4,62,29.83,6.2,North,15.0,-,N/A,,Partly Cloudy,350,2012-12-04 14:30:00
4:00 PM,50.0,35.6,58,29.86,6.2,North,11.5,-,N/A,,Unknown,350,2012-12-04 15:00:00
4:30 PM,48.2,35.6,62,29.86,6.2,North,6.9,-,N/A,,Unknown,360,2012-12-04 15:30:00
5:00 PM,46.4,33.8,62,29.86,6.2,Variable,3.5,-,N/A,,Unknown,0,2012-12-04 16:00:00
5:30 PM,42.8,33.8,70,29.89,6.2,Variable,2.3,-,N/A,,Unknown,0,2012-12-04 16:30:00
6:00 PM,42.8,33.8,70,29.89,6.2,NNW,4.6,-,N/A,,Unknown,330,2012-12-04 17:00:00
6:30 PM,41.0,33.8,76,29.86,6.2,NW,6.9,-,N/A,,Unknown,310,2012-12-04 17:30:00
7:00 PM,41.0,33.8,76,29.89,6.2,Variable,3.5,-,N/A,,Unknown,0,2012-12-04 18:00:00
7:30 PM,39.2,33.8,81,29.89,6.2,Variable,1.2,-,N/A,,Unknown,0,2012-12-04 18:30:00
8:00 PM,39.2,32.0,75,29.89,6.2,Calm,Calm,-,N/A,,Scattered Clouds,0,2012-12-04 19:00:00
8:30 PM,35.6,30.2,81,29.89,6.2,East,2.3,-,N/A,,Unknown,100,2012-12-04 19:30:00
9:00 PM,33.8,32.0,93,29.89,6.2,Variable,2.3,-,N/A,,Unknown,0,2012-12-04 20:00:00
9:30 PM,33.8,30.2,87,29.89,6.2,Variable,1.2,-,N/A,,Unknown,0,2012-12-04 20:30:00
10:00 PM,33.8,30.2,87,29.86,6.2,East,2.3,-,N/A,,Mostly Cloudy,90,2012-12-04 21:00:00
10:30 PM,33.8,32.0,93,29.86,6.2,Variable,1.2,-,N/A,,Overcast,0,2012-12-04 21:30:00
11:00 PM,33.8,32.0,93,29.86,6.2,Variable,2.3,-,N/A,,Unknown,0,2012-12-04 22:00:00
11:30 PM,33.8,32.0,93,29.86,6.2,Variable,3.5,-,N/A,,Unknown,0,2012-12-04 22:30:00